Regional Weather Roundup
Issued by NWS

Home | Current Version | Previous Version | Graphics & Text | Print | Product List | Glossary On
Versions: 1 2 3 4 5 6 7 8 9 10 11 12 13 14 15 16 17 18 19 20 21 22 23 24 25 26 27 28 29 30 31 32 33 34 35 36 37 38 39 40 41 42 43
000
ASUS45 KCYS 271110
RWRWY

WYOMING REGIONAL WEATHER ROUNDUP
NATIONAL WEATHER SERVICE CHEYENNE WY
400 AM MST SAT DEC 27 2014

NOTE:  "FAIR" INDICATES FEW OR NO CLOUDS BELOW 12,000 FEET
WITH NO SIGNIFICANT WEATHER AND/OR OBSTRUCTIONS TO VISIBILITY.

WYZ001-271200-
YELLOWSTONE NATIONAL PARK

CITY           SKY/WX    TMP DP  RH WIND       PRES   REMARKS
LK YELLOWSTONE   N/A     -6 -10  83 NW3       30.07R
W YELLOWSTONE  NOT AVBL

$$
WYZ002>013-054>058-071-098>099-271200-
NORTHERN WYOMING

CITY           SKY/WX    TMP DP  RH WIND       PRES   REMARKS
JACKSON        FAIR      -9 -11  92 N9        30.14S WCI -27
CODY           FAIR      18   7  62 SW7       30.02F WCI   8
GREYBULL       CLOUDY     3   2  95 SE3       30.16F FOG
WORLAND        FAIR      -4  -7  87 SE3       30.13F
SHERIDAN       FAIR      -1  -6  79 S6        30.07F WCI -13
BUFFALO        FAIR       9   0  67 W3        30.05F
GILLETTE       FAIR      12   8  84 SW7       30.08S WCI   1
HULETT           N/A    N/A N/A N/A MISG        N/A
NEWCASTLE      PTSUNNY   12  10  92 W5        30.10F WCI   4

$$
WYZ014>020-022>026-101>103-271200-
CENTRAL WYOMING

CITY           SKY/WX    TMP DP  RH WIND       PRES   REMARKS
BIG PINEY      FAIR      -3  -9  75 NW9       30.11R WCI -19
PINEDALE       FAIR      -6  -8  92 W5        30.10S WCI -17
DUBOIS         NOT AVBL
LANDER         FAIR      10   0  63 SW8       30.07F WCI  -2
RIVERTON       FAIR       4   0  83 W7        30.09S WCI  -8
CASPER         CLOUDY    12   7  80 SW15      30.08S WCI  -4
DOUGLAS        CLOUDY     5   0  79 N9        30.10F WCI  -9

$$
WYZ021-027>030-104>119-271200-
SOUTHERN WYOMING

CITY           SKY/WX    TMP DP  RH WIND       PRES   REMARKS
EVANSTON       FAIR       8   5  87 SW7       30.15R WCI  -3
KEMMERER       FAIR       1   0  92 NW5       30.12R WCI  -8
FORT BRIDGER   CLOUDY    11   7  83 W12       30.17R WCI  -3
ROCK SPRINGS   MOCLDY     5   2  87 SW13      30.11R WCI -12
DIXON          FLURRIES   0  -4  83 E7        30.16S WCI -13
RAWLINS        FAIR      -2  -6  83 VRB3      30.08R
SARATOGA       FLURRIES   0  -6  78 S12       30.08S WCI -18
LARAMIE        FAIR      -6  -8  91 S7        30.02S WCI -20
CHEYENNE       FAIR       6  -2  69 W10       30.04R WCI  -9
TORRINGTON     FAIR       2   0  91 NW10      30.12S WCI -14
PINE BLUFFS    FAIR      -4  -8  84 MISG      30.09S

$$


USA.gov is the U.S. government's official web portal to all federal, state and local government web resources and services.